TimeCDT,TemperatureF,Dew PointF,Humidity,Sea Level PressureIn,VisibilityMPH,Wind Direction,Wind SpeedMPH,Gust SpeedMPH,PrecipitationIn,Events,Conditions,WindDirDegrees,DateUTC
12:15 AM,61.0,50.4,68,29.83,10.0,NNE,3.5,-,N/A,Thunderstorm,Clear,20,2013-05-16 05:15:00
12:35 AM,60.6,50.2,68,29.84,10.0,Calm,Calm,-,N/A,,Clear,0,2013-05-16 05:35:00
12:55 AM,59.5,50.4,72,29.84,10.0,Calm,Calm,-,N/A,,Clear,0,2013-05-16 05:55:00
1:15 AM,57.6,49.8,75,29.87,10.0,Calm,Calm,-,N/A,,Clear,0,2013-05-16 06:15:00
1:35 AM,57.9,50.4,76,29.87,10.0,Calm,Calm,-,N/A,Thunderstorm,Clear,0,2013-05-16 06:35:00
1:55 AM,56.5,50.7,81,29.86,10.0,Calm,Calm,-,N/A,,Clear,0,2013-05-16 06:55:00
2:15 AM,57.0,50.5,79,29.85,10.0,Calm,Calm,-,N/A,,Clear,0,2013-05-16 07:15:00
2:35 AM,55.9,49.6,79,29.86,10.0,Calm,Calm,-,N/A,,Clear,0,2013-05-16 07:35:00
2:55 AM,53.8,49.8,86,29.87,10.0,Calm,Calm,-,N/A,,Clear,0,2013-05-16 07:55:00
3:15 AM,52.9,49.3,88,29.87,10.0,Calm,Calm,-,N/A,,Clear,0,2013-05-16 08:15:00
3:35 AM,56.1,50.4,81,29.87,10.0,Calm,Calm,-,N/A,,Clear,0,2013-05-16 08:35:00
3:55 AM,55.9,51.1,84,29.87,10.0,North,4.6,-,N/A,,Clear,350,2013-05-16 08:55:00
4:15 AM,56.7,50.7,80,29.87,10.0,Calm,Calm,-,N/A,,Clear,0,2013-05-16 09:15:00
4:35 AM,54.7,50.5,86,29.87,10.0,NNW,3.5,-,N/A,,Clear,330,2013-05-16 09:35:00
4:55 AM,54.7,49.8,84,29.87,10.0,Calm,Calm,-,N/A,,Clear,0,2013-05-16 09:55:00
5:15 AM,53.4,50.4,89,29.88,10.0,Calm,Calm,-,N/A,,Clear,0,2013-05-16 10:15:00
5:35 AM,53.6,50.0,88,29.88,10.0,Calm,Calm,-,N/A,,Clear,0,2013-05-16 10:35:00
5:55 AM,52.5,49.6,90,29.89,10.0,Calm,Calm,-,N/A,,Clear,0,2013-05-16 10:55:00
6:15 AM,54.1,50.9,89,29.89,10.0,Calm,Calm,-,N/A,,Clear,0,2013-05-16 11:15:00
6:35 AM,54.5,51.4,89,29.89,10.0,NNE,4.6,-,N/A,,Clear,30,2013-05-16 11:35:00
6:55 AM,58.6,51.1,76,29.90,10.0,NNE,5.8,-,N/A,,Clear,30,2013-05-16 11:55:00
7:15 AM,60.3,50.5,70,29.91,10.0,Calm,Calm,-,N/A,,Clear,0,2013-05-16 12:15:00
7:35 AM,60.8,49.5,66,29.92,10.0,Calm,Calm,-,N/A,,Clear,0,2013-05-16 12:35:00
7:55 AM,62.6,50.4,64,29.93,5.0,Calm,Calm,-,N/A,,Haze,0,2013-05-16 12:55:00
8:15 AM,65.1,50.4,59,29.94,10.0,North,3.5,-,N/A,,Scattered Clouds,350,2013-05-16 13:15:00
8:35 AM,68.2,51.1,54,29.95,10.0,Calm,Calm,-,N/A,,Clear,0,2013-05-16 13:35:00
8:55 AM,69.4,49.1,48,29.95,10.0,Calm,Calm,-,N/A,,Scattered Clouds,0,2013-05-16 13:55:00
9:15 AM,69.8,49.3,48,29.95,10.0,Calm,Calm,-,N/A,,Mostly Cloudy,0,2013-05-16 14:15:00
9:35 AM,71.4,48.7,45,29.95,10.0,Calm,Calm,-,N/A,,Scattered Clouds,0,2013-05-16 14:35:00
9:55 AM,72.7,49.5,44,29.95,10.0,ENE,3.5,-,N/A,,Clear,60,2013-05-16 14:55:00
10:15 AM,73.4,47.5,40,29.95,10.0,NE,5.8,-,N/A,,Mostly Cloudy,40,2013-05-16 15:15:00
10:35 AM,74.3,47.8,39,29.95,10.0,ENE,5.8,-,N/A,,Scattered Clouds,60,2013-05-16 15:35:00
10:55 AM,75.2,46.8,36,29.94,10.0,NE,4.6,-,N/A,,Scattered Clouds,50,2013-05-16 15:55:00
11:15 AM,76.1,46.8,35,29.93,10.0,NE,4.6,-,N/A,,Scattered Clouds,40,2013-05-16 16:15:00
11:35 AM,76.3,46.4,35,29.93,10.0,ENE,3.5,-,N/A,,Clear,60,2013-05-16 16:35:00
11:55 AM,77.4,44.1,31,29.93,10.0,Calm,Calm,-,N/A,,Clear,0,2013-05-16 16:55:00
12:15 PM,77.4,44.2,31,29.94,10.0,Calm,Calm,-,N/A,,Scattered Clouds,0,2013-05-16 17:15:00
12:35 PM,76.6,43.9,31,29.94,10.0,NE,5.8,-,N/A,,Mostly Cloudy,40,2013-05-16 17:35:00
12:55 PM,78.8,45.7,31,29.93,10.0,NE,6.9,-,N/A,,Scattered Clouds,50,2013-05-16 17:55:00
1:15 PM,79.0,45.5,31,29.93,10.0,East,6.9,-,N/A,,Scattered Clouds,90,2013-05-16 18:15:00
1:35 PM,79.2,46.4,31,29.92,10.0,NE,9.2,-,N/A,,Clear,50,2013-05-16 18:35:00
1:55 PM,80.6,46.4,30,29.92,10.0,ENE,6.9,-,N/A,,Clear,70,2013-05-16 18:55:00
2:15 PM,81.5,43.2,26,29.91,10.0,Calm,Calm,-,N/A,,Clear,0,2013-05-16 19:15:00
2:35 PM,80.8,44.6,28,29.91,10.0,ENE,4.6,-,N/A,,Scattered Clouds,70,2013-05-16 19:35:00
2:55 PM,79.5,45.7,30,29.91,10.0,East,4.6,-,N/A,,Mostly Cloudy,90,2013-05-16 19:55:00
3:15 PM,80.4,42.4,26,29.90,10.0,ESE,6.9,-,N/A,,Mostly Cloudy,110,2013-05-16 20:15:00
3:35 PM,81.0,43.9,27,29.89,10.0,Calm,Calm,-,N/A,,Scattered Clouds,0,2013-05-16 20:35:00
3:55 PM,82.6,44.4,26,29.89,10.0,South,8.1,-,N/A,,Scattered Clouds,180,2013-05-16 20:55:00
4:15 PM,80.6,43.5,27,29.89,10.0,SE,5.8,-,N/A,,Clear,140,2013-05-16 21:15:00
4:35 PM,81.7,41.2,24,29.89,10.0,SE,5.8,-,N/A,,Scattered Clouds,140,2013-05-16 21:35:00
4:55 PM,82.4,41.0,23,29.89,10.0,Calm,Calm,-,N/A,,Scattered Clouds,0,2013-05-16 21:55:00
5:15 PM,81.1,44.1,27,29.89,10.0,ENE,3.5,-,N/A,,Clear,70,2013-05-16 22:15:00
5:35 PM,81.0,46.2,29,29.88,10.0,East,3.5,-,N/A,,Clear,80,2013-05-16 22:35:00
5:55 PM,81.3,46.2,29,29.88,10.0,South,6.9,-,N/A,,Clear,170,2013-05-16 22:55:00
6:15 PM,80.6,45.7,29,29.89,10.0,SSE,6.9,-,N/A,,Scattered Clouds,150,2013-05-16 23:15:00
6:35 PM,79.5,43.9,28,29.90,10.0,SE,4.6,-,N/A,,Scattered Clouds,130,2013-05-16 23:35:00
6:55 PM,79.0,45.7,31,29.90,10.0,SE,3.5,-,N/A,,Mostly Cloudy,130,2013-05-16 23:55:00
7:15 PM,77.9,46.4,33,29.89,10.0,ESE,4.6,-,N/A,,Mostly Cloudy,110,2013-05-17 00:15:00
7:35 PM,74.1,48.6,40,29.90,10.0,East,4.6,-,N/A,,Scattered Clouds,90,2013-05-17 00:35:00
7:55 PM,73.8,47.3,39,29.91,10.0,Calm,Calm,-,N/A,,Clear,0,2013-05-17 00:55:00
8:15 PM,73.9,45.9,37,29.91,10.0,ESE,3.5,-,N/A,,Clear,120,2013-05-17 01:15:00
8:35 PM,69.1,49.1,49,29.92,10.0,ENE,5.8,-,N/A,,Scattered Clouds,60,2013-05-17 01:35:00
8:55 PM,68.5,45.9,44,29.92,10.0,ENE,8.1,-,N/A,,Scattered Clouds,60,2013-05-17 01:55:00
9:15 PM,67.8,44.4,43,29.94,10.0,ENE,6.9,-,N/A,,Scattered Clouds,60,2013-05-17 02:15:00
9:35 PM,66.7,44.1,44,29.94,10.0,NE,8.1,-,N/A,,Clear,50,2013-05-17 02:35:00
9:55 PM,66.0,44.6,46,29.95,10.0,ENE,6.9,-,N/A,,Clear,70,2013-05-17 02:55:00
10:15 PM,64.6,44.8,49,29.96,10.0,ENE,6.9,-,N/A,,Clear,60,2013-05-17 03:15:00
10:35 PM,64.8,45.7,50,29.96,10.0,ENE,5.8,-,N/A,,Mostly Cloudy,70,2013-05-17 03:35:00
10:55 PM,64.8,45.7,50,29.96,10.0,Calm,Calm,-,N/A,,Mostly Cloudy,0,2013-05-17 03:55:00
11:15 PM,63.3,45.5,52,29.97,10.0,East,3.5,-,N/A,,Scattered Clouds,80,2013-05-17 04:15:00
11:35 PM,63.7,45.5,52,29.97,10.0,East,3.5,-,N/A,,Mostly Cloudy,90,2013-05-17 04:35:00
11:55 PM,62.4,46.0,55,29.97,10.0,Calm,Calm,-,N/A,,Overcast,0,2013-05-17 04:55:00